{"data":{"norad_id":52867,"intl_designator":"2022-062AP","name":"STARLINK-4126","alt_names":[],"object_type":"PAYLOAD","status":"ACTIVE","operator":null,"country":"US","launch_date":"2022-06-17","launch_site_code":"AFETR","launch_vehicle":null,"mission":null,"orbit_class":"UNKNOWN","rcs_meters":null,"size_class":null,"mass_kg":null,"dimensions":null,"purposes":["comms"],"wikipedia_slug":null,"has_3d_model":false,"image_url":null,"decayed_at":null,"tle_current":{"epoch":"2026-05-25T00:32:49.521696Z","epoch_age_seconds":83256,"freshness":"FRESH","line1":"1 52867U 22062AP  26145.02279539 -.00000188  00000+0  63124-5 0  9993","line2":"2 52867  53.2141  41.4450 0001710  63.7617 296.3551 15.08835118217453","mean_motion":15.08835118,"eccentricity":0.000171,"inclination_deg":53.2141,"raan_deg":41.445,"arg_perigee_deg":63.7617,"mean_anomaly_deg":296.3551,"bstar":6.3124e-6,"rev_number":21745,"period_min":95.437863476346,"perigee_km":538.57535122703,"apogee_km":540.9412714235,"semimajor_km":6917.8953113253,"source":"CELESTRAK","updated_at":"2026-05-25T13:38:17.248699Z"}}}